• In Russia
  • List of Countries
  • For 7 days
  • Water Temperature
  • Weather Map
  • Weather Widgets
  • user-avatar
    Login

    Hourly Weather Kitzbuhel

    Today, 17 November, Sunday

    Time Temperature Precipitation Wind Pressure Humidity
    00:00 +3°C° 0.7 mm 1 mps 671 mmHg 94%
    01:00 +3°C° 0.7 mm 1 mps 671 mmHg 96%
    02:00 +2°C° 1.7 mm 1 mps 670 mmHg 97%
    03:00 +2°C° 1.7 mm 1 mps 669 mmHg 97%
    04:00 +2°C° 1.7 mm 1 mps 669 mmHg 98%
    05:00 +3°C° 1.7 mm 1 mps 668 mmHg 98%
    06:00 +3°C° 1.7 mm 1 mps 668 mmHg 98%
    07:00 +3°C° 1.7 mm 1 mps 668 mmHg 98%
    08:00 +4°C° 2.2 mm 1 mps 668 mmHg 98%
    09:00 +4°C° 2.2 mm 1 mps 668 mmHg 98%
    10:00 +5°C° 2.2 mm 1 mps 668 mmHg 97%
    11:00 +4°C° 2.5 mm 2 mps 667 mmHg 97%
    12:00 +4°C° 2.5 mm 2 mps 667 mmHg 98%
    13:00 +4°C° 2.5 mm 2 mps 666 mmHg 98%
    14:00 +4°C° 4 mm 2 mps 666 mmHg 98%
    15:00 +4°C° 4 mm 2 mps 665 mmHg 98%
    16:00 +4°C° 4 mm 2 mps 665 mmHg 98%
    17:00 +4°C° 1.6 mm 2 mps 665 mmHg 98%
    18:00 +3°C° 1.6 mm 2 mps 665 mmHg 97%
    19:00 +3°C° 1.6 mm 2 mps 665 mmHg 97%
    20:00 +3°C° 0.6 mm 2 mps 665 mmHg 97%
    21:00 +3°C° 0.6 mm 2 mps 666 mmHg 96%
    22:00 +3°C° 0.6 mm 2 mps 666 mmHg 96%
    23:00 +3°C° 0.2 mm 2 mps 666 mmHg 96%

    Tomorrow, 18 November, Monday

    Time Temperature Precipitation Wind Pressure Humidity
    00:00 +3°C° 0.2 mm 2 mps 667 mmHg 95%
    01:00 +3°C° 0.2 mm 2 mps 667 mmHg 95%
    02:00 +3°C° 0 mm 1 mps 667 mmHg 94%
    03:00 +3°C° 0 mm 1 mps 667 mmHg 94%
    04:00 +2°C° 0 mm 1 mps 667 mmHg 93%
    05:00 +1°C° 0 mm 2 mps 668 mmHg 93%
    06:00 +1°C° 0 mm 2 mps 668 mmHg 92%
    07:00 +1°C° 0 mm 2 mps 669 mmHg 92%
    08:00 +2°C° 0 mm 1 mps 669 mmHg 92%
    09:00 +3°C° 0 mm 1 mps 670 mmHg 92%
    10:00 +4°C° 0 mm 1 mps 670 mmHg 92%
    11:00 +4°C° 0 mm 1 mps 671 mmHg 90%
    12:00 +5°C° 0 mm 1 mps 671 mmHg 89%
    13:00 +5°C° 0 mm 1 mps 671 mmHg 88%
    14:00 +5°C° 0 mm 1 mps 671 mmHg 89%
    15:00 +3°C° 0 mm 2 mps 671 mmHg 91%
    16:00 +2°C° 0 mm 2 mps 671 mmHg 92%
    17:00 +1°C° 0 mm 2 mps 671 mmHg 92%
    18:00 -1°C° 0 mm 2 mps 671 mmHg 91%
    19:00 -2°C° 0 mm 2 mps 671 mmHg 90%
    20:00 -2°C° 0 mm 2 mps 671 mmHg 90%
    21:00 -2°C° 0 mm 2 mps 671 mmHg 90%
    22:00 0°C° 0 mm 1 mps 671 mmHg 90%
    23:00 0°C° 0.2 mm 1 mps 671 mmHg 91%

    Day after tomorrow, 19 November, Tuesday

    Time Temperature Precipitation Wind Pressure Humidity
    00:00 0°C° 0.2 mm 1 mps 671 mmHg 91%
    01:00 0°C° 0.2 mm 1 mps 671 mmHg 92%
    02:00 -1°C° 0.1 mm 2 mps 671 mmHg 92%
    03:00 -1°C° 0.1 mm 2 mps 671 mmHg 92%
    04:00 -1°C° 0.1 mm 2 mps 671 mmHg 92%
    05:00 -1°C° 0 mm 2 mps 671 mmHg 91%
    06:00 -1°C° 0 mm 2 mps 671 mmHg 91%
    07:00 -2°C° 0 mm 2 mps 671 mmHg 90%
    08:00 +2°C° 0 mm 1 mps 671 mmHg 90%
    09:00 +3°C° 0 mm 1 mps 672 mmHg 91%
    10:00 +3°C° 0 mm 0 mps 672 mmHg 91%
    11:00 +3°C° 0 mm 0 mps 672 mmHg 91%
    12:00 +3°C° 0 mm 0 mps 672 mmHg 91%
    13:00 +4°C° 0 mm 0 mps 671 mmHg 92%
    14:00 +3°C° 0.2 mm 0 mps 671 mmHg 93%
    15:00 +3°C° 0.2 mm 0 mps 671 mmHg 94%
    16:00 +2°C° 0.2 mm 0 mps 671 mmHg 96%
    17:00 +3°C° 0.1 mm 1 mps 671 mmHg 96%
    18:00 +3°C° 0.1 mm 1 mps 671 mmHg 96%
    19:00 +2°C° 0.1 mm 1 mps 671 mmHg 96%
    20:00 +2°C° 0.1 mm 1 mps 672 mmHg 96%
    21:00 +2°C° 0.1 mm 1 mps 672 mmHg 96%
    22:00 +1°C° 0.1 mm 1 mps 672 mmHg 96%
    23:00 +1°C° 0.1 mm 1 mps 672 mmHg 96%

    20 November, Wednesday

    Time Temperature Precipitation Wind Pressure Humidity
    00:00 +1°C° 0.1 mm 1 mps 672 mmHg 95%
    01:00 +1°C° 0.1 mm 1 mps 672 mmHg 95%
    02:00 0°C° 0 mm 1 mps 673 mmHg 95%
    03:00 0°C° 0 mm 1 mps 673 mmHg 94%
    04:00 0°C° 0 mm 1 mps 673 mmHg 94%
    05:00 0°C° 0 mm 1 mps 673 mmHg 93%
    06:00 -1°C° 0 mm 1 mps 673 mmHg 91%
    07:00 -1°C° 0 mm 1 mps 673 mmHg 90%
    08:00 0°C° 0 mm 1 mps 674 mmHg 87%
    09:00 +1°C° 0 mm 1 mps 674 mmHg 85%
    10:00 +3°C° 0 mm 1 mps 674 mmHg 82%
    11:00 +4°C° 0 mm 1 mps 674 mmHg 82%
    12:00 +5°C° 0 mm 1 mps 674 mmHg 82%
    13:00 +6°C° 0 mm 1 mps 674 mmHg 81%
    14:00 +5°C° 0 mm 1 mps 674 mmHg 82%
    15:00 +4°C° 0 mm 1 mps 674 mmHg 83%
    16:00 +2°C° 0 mm 2 mps 674 mmHg 83%
    17:00 +1°C° 0 mm 2 mps 674 mmHg 81%
    18:00 -1°C° 0 mm 2 mps 674 mmHg 78%
    19:00 -2°C° 0 mm 3 mps 674 mmHg 76%
    20:00 -2°C° 0 mm 3 mps 674 mmHg 74%
    21:00 -2°C° 0 mm 3 mps 674 mmHg 72%
    22:00 -4°C° 0 mm 3 mps 674 mmHg 71%
    23:00 -4°C° 0 mm 3 mps 674 mmHg 71%

    21 November, Thursday

    Time Temperature Precipitation Wind Pressure Humidity
    00:00 -4°C° 0 mm 3 mps 674 mmHg 70%
    01:00 -4°C° 0 mm 3 mps 673 mmHg 70%
    02:00 -2°C° 0 mm 3 mps 673 mmHg 71%
    03:00 -2°C° 0 mm 3 mps 673 mmHg 71%
    04:00 -2°C° 0 mm 3 mps 673 mmHg 71%
    05:00 -2°C° 0 mm 3 mps 673 mmHg 71%
    06:00 -2°C° 0 mm 3 mps 673 mmHg 71%
    07:00 -2°C° 0 mm 3 mps 673 mmHg 71%
    08:00 0°C° 0 mm 3 mps 673 mmHg 71%
    09:00 +1°C° 0 mm 3 mps 673 mmHg 72%
    10:00 +2°C° 0 mm 3 mps 673 mmHg 72%
    11:00 +3°C° 0 mm 3 mps 673 mmHg 73%
    12:00 +3°C° 0 mm 3 mps 673 mmHg 75%
    13:00 +4°C° 0 mm 3 mps 672 mmHg 76%
    14:00 +3°C° 0 mm 3 mps 672 mmHg 78%
    15:00 +2°C° 0 mm 3 mps 672 mmHg 80%
    16:00 +2°C° 0 mm 3 mps 672 mmHg 82%
    17:00 +1°C° 0 mm 3 mps 672 mmHg 82%
    18:00 0°C° 0 mm 3 mps 672 mmHg 81%
    19:00 -1°C° 0 mm 3 mps 672 mmHg 81%
    20:00 -1°C° 0 mm 3 mps 672 mmHg 82%
    21:00 -1°C° 0 mm 3 mps 673 mmHg 82%
    22:00 -1°C° 0 mm 3 mps 673 mmHg 83%
    23:00 -1°C° 0 mm 3 mps 673 mmHg 83%

    22 November, Friday

    Time Temperature Precipitation Wind Pressure Humidity
    00:00 -1°C° 0 mm 3 mps 673 mmHg 84%
    01:00 -1°C° 0 mm 3 mps 673 mmHg 85%
    02:00 -1°C° 0 mm 3 mps 673 mmHg 85%
    03:00 -1°C° 0 mm 3 mps 673 mmHg 85%
    04:00 0°C° 0 mm 3 mps 673 mmHg 85%
    05:00 0°C° 0 mm 3 mps 673 mmHg 85%
    06:00 0°C° 0 mm 3 mps 673 mmHg 85%
    07:00 0°C° 0 mm 3 mps 673 mmHg 85%
    08:00 +1°C° 0 mm 3 mps 673 mmHg 84%
    09:00 +3°C° 0 mm 3 mps 673 mmHg 83%
    10:00 +4°C° 0 mm 3 mps 674 mmHg 82%
    11:00 +5°C° 0 mm 3 mps 673 mmHg 83%
    12:00 +7°C° 0 mm 3 mps 673 mmHg 84%
    13:00 +7°C° 0 mm 3 mps 673 mmHg 85%
    14:00 +5°C° 0 mm 3 mps 672 mmHg 87%
    15:00 +4°C° 0 mm 4 mps 672 mmHg 88%
    16:00 +4°C° 0 mm 4 mps 671 mmHg 90%
    17:00 +3°C° 0 mm 4 mps 671 mmHg 88%
    18:00 +3°C° 0 mm 4 mps 671 mmHg 87%
    19:00 +3°C° 0 mm 4 mps 671 mmHg 85%
    20:00 +3°C° 0 mm 4 mps 671 mmHg 86%
    21:00 +3°C° 0 mm 4 mps 671 mmHg 86%
    22:00 +3°C° 0 mm 4 mps 671 mmHg 86%
    23:00 +3°C° 0 mm 4 mps 671 mmHg 86%
    Show more